Torna al catalogo

STARLINK-37994

AttivoComunicazioniSSO
NORAD 69680·PAYLOAD·🇺🇸 United States

Lanciato Jun 25, 2026 da Vandenberg Space Force Base

Loading…

Prossimi Passaggi (prossime 24 ore)

TLE

AggiornatoSource: CelesTrak SupGP

Epoca: Sep 15, 2026, 03:11 UTC

1 69680C 26145D   26258.13312500 -.00030782  00000+0 -95529-3 0  2587
2 69680  97.2852 104.8212 0001971  96.0196  34.7440 15.33461758    17

Traccia STARLINK-37994 in tempo reale con AllMySat

Download on the App Store